Wind_Speed
3 2 2 2 2 2 2 1 1 1 1 1 1 2 3 3 4 4 4 4 4 4 4 4 4 4 4 4 4 5 4 5 5 5 6 6 6 6 6 6 5 5 5
4 4 4 3 3 2 2 2 2 2 2 2 2 3 4 4 5 5 5 5 4 5 5 5 5 5 5 5 5 5 6 6 5 6 6 6 6 5 6 6 6 6 6
6 5 5 4 4 4 3 3 3 3 2 3 3 3 4 4 5 5 6 5 6 6 6 6 6 6 6 7 6 7 7 7 6 7 7 7 7 7 7 7 7 7 7
6 6 6 5 5 4 4 4 4 3 3 4 4 4 4 4 4 5 6 6 7 7 7 7 7 8 8 8 8 8 9 8 9 9 9 9 9 9 9 9 9 8 9
6 6 6 6 5 5 5 5 5 5 5 4 4 4 4 4 4 5 6 7 7 7 8 9 9 9 9 9 9 9 9 9 10 10 10 11 11 11 10 11 11 10 10
6 6 6 6 6 5 5 6 6 5 5 4 5 4 4 4 4 5 6 6 7 7 8 9 10 10 10 11 10 10 10 10 10 10 11 11 11 12 12 12 12 12 12
6 6 7 6 6 6 5 5 5 5 5 5 5 5 5 5 5 6 6 7 7 8 9 10 10 10 10 10 10 11 11 11 11 10 11 11 11 12 12 12 12 12 12
7 7 6 6 6 6 5 5 6 5 5 5 5 6 6 6 6 7 7 8 8 9 9 10 10 10 11 11 11 11 12 12 13 12 11 11 12 12 12 13 13 13 13
6 6 5 5 5 5 5 5 5 6 6 6 6 7 7 7 7 8 9 9 9 9 10 10 10 11 11 11 12 12 12 13 13 13 12 12 12 13 13 14 13 14 14
5 4 4 5 5 5 5 5 6 6 6 6 7 7 8 8 9 8 9 10 10 10 11 10 11 11 11 12 12 12 12 12 13 13 13 14 14 14 14 15 15 15 15
4 4 4 4 4 5 6 6 6 6 6 6 6 7 8 9 9 9 9 10 9 9 10 10 11 11 11 11 12 12 13 13 13 13 13 14 14 15 15 15 15 16 15
3 4 4 4 4 4 5 5 5 6 6 6 5 6 6 7 8 8 8 8 9 9 10 10 11 11 11 11 12 12 13 13 13 13 13 14 15 15 15 15 15 14 14
3 4 5 5 5 5 5 5 5 5 5 6 6 6 6 6 6 6 7 7 8 9 9 10 10 10 11 11 11 12 12 13 13 13 14 14 14 15 15 14 15 15 15
4 4 5 5 5 5 5 6 7 7 6 6 6 5 6 6 6 6 6 7 8 8 9 9 10 10 10 11 11 11 12 13 13 13 14 14 15 15 15 14 14 15 15
5 5 5 5 6 6 6 6 7 7 7 6 6 5 6 6 6 6 7 7 7 8 8 9 9 10 11 12 12 12 13 13 13 13 14 14 15 15 15 14 14 15 15
6 5 5 6 6 6 6 6 7 7 7 7 6 6 6 6 6 6 6 7 7 7 8 8 9 10 10 11 12 13 13 13 13 13 13 14 15 15 15 15 15 15 15
6 6 6 6 7 7 7 7 7 7 8 8 8 7 6 7 7 7 7 7 7 7 8 8 9 9 10 10 11 12 13 13 13 13 13 14 14 15 15 16 16 16 16
6 6 7 7 7 7 8 8 7 7 7 8 8 7 7 7 7 8 8 8 8 8 9 9 9 10 10 10 10 11 12 12 13 13 14 14 15 15 15 16 16 16 17
7 7 7 8 7 7 8 8 7 7 7 7 8 8 8 8 8 8 8 9 9 9 10 10 10 10 10 10 10 11 11 12 12 13 13 14 14 15 15 15 15 16 16
7 7 8 9 8 8 8 8 8 8 8 8 8 8 8 8 8 8 8 9 10 10 10 10 11 11 11 11 11 11 11 12 13 13 14 14 14 15 15 15 15 15 16
8 8 8 8 8 8 8 9 9 9 9 9 9 9 9 9 9 9 9 10 10 11 11 12 12 12 12 12 13 13 12 13 13 13 13 14 14 14 14 14 14 15 15
8 8 8 8 8 9 9 10 10 9 9 9 9 9 9 10 10 10 10 11 11 11 12 12 12 13 14 14 13 13 13 13 13 13 13 14 14 14 14 14 14 15 14
9 8 8 9 9 9 9 10 10 9 9 9 10 10 10 10 11 11 11 10 11 11 12 13 13 13 13 14 14 14 14 13 14 14 14 14 14 15 15 15 15 15 15
9 9 9 9 9 9 9 9 9 9 9 10 10 11 11 11 11 11 12 12 12 11 12 13 13 13 14 14 14 14 14 14 14 14 15 15 15 15 15 15 14 15 16
10 10 11 11 10 10 10 10 10 10 11 11 11 11 11 11 11 11 12 12 12 12 12 12 13 13 14 14 14 14 14 14 15 15 15 16 16 16 15 15 16 15 15
12 12 12 12 11 11 10 10 10 11 11 11 12 12 12 12 12 12 12 13 13 12 12 12 12 13 13 13 13 13 14 14 14 14 15 15 16 16 17 17 17 17 16
Wind_Direction
269 280 292 310 322 326 332 334 352 344 333 317 277 254 244 233 226 222 221 219 217 226 236 242 240 244 244 251 259 261 261 258 255 243 231 225 230 228 224 219 219 222 222
261 266 274 283 288 293 294 298 309 307 302 306 296 272 253 240 230 225 227 226 229 239 245 248 248 249 248 254 256 260 266 272 263 246 242 239 237 232 234 232 233 235 235
257 260 270 277 274 270 276 286 291 285 285 296 293 287 270 248 230 232 237 238 238 244 249 250 251 251 251 254 256 262 266 266 257 252 246 245 246 243 241 240 240 240 241
257 262 270 271 269 265 267 268 274 274 274 281 282 283 278 265 251 247 248 247 249 250 250 251 253 254 254 257 260 263 265 264 260 256 252 246 245 247 247 247 249 249 246
259 265 269 269 266 259 257 260 265 274 271 273 279 281 284 274 257 254 249 249 252 255 258 257 254 253 256 259 260 260 262 263 260 256 255 249 247 247 249 250 252 252 249
258 262 266 263 260 259 255 255 258 264 266 274 278 273 272 266 251 246 249 255 259 260 261 259 256 256 258 260 261 259 260 261 261 255 254 251 247 246 248 251 254 255 253
257 257 259 257 255 255 253 249 249 247 255 267 270 267 263 261 254 247 255 262 263 266 264 261 260 259 259 259 258 257 258 261 259 255 252 249 250 250 248 251 256 257 256
256 256 256 252 252 250 252 249 246 254 263 267 267 270 270 267 266 263 262 269 268 267 268 265 260 259 260 261 260 260 259 260 258 254 252 252 252 251 252 254 255 255 256
256 256 251 247 245 248 252 247 247 250 257 262 264 269 271 271 272 271 268 270 271 270 269 267 265 265 263 260 260 261 262 259 255 254 254 253 253 252 253 252 252 254 255
252 251 247 244 245 246 247 250 250 254 256 258 263 268 272 274 273 271 267 266 268 267 266 264 265 266 263 260 259 259 259 257 255 254 254 254 252 250 251 252 252 253 253
248 250 250 245 241 241 244 251 254 257 260 260 264 269 272 272 272 271 266 264 266 267 269 268 268 268 264 262 261 259 258 257 257 256 257 254 252 250 250 252 250 254 252
249 245 248 247 245 244 246 250 255 261 261 261 268 274 275 274 274 271 263 267 268 270 273 269 268 266 264 262 261 261 260 257 258 256 256 255 253 253 253 252 249 254 253
245 238 241 244 245 245 246 247 253 264 266 267 276 284 283 284 284 277 271 275 277 278 276 274 273 270 268 266 265 262 260 258 256 256 255 254 253 254 253 251 254 255 257
250 243 238 240 242 244 246 248 251 255 260 262 266 273 276 275 277 276 275 278 281 280 277 276 277 273 270 268 266 264 262 260 259 258 256 253 252 252 253 254 255 256 257
253 249 243 241 242 243 250 255 257 261 266 263 263 266 269 267 267 266 269 273 278 281 282 280 277 278 276 272 269 267 266 263 259 260 259 254 252 253 256 258 258 257 258
257 251 247 245 243 242 248 253 257 261 266 266 266 266 267 270 270 270 272 277 283 289 289 284 281 281 280 276 272 269 267 264 258 257 256 255 255 256 255 256 257 257 257
265 251 248 249 247 246 251 255 259 263 265 269 269 266 269 273 277 279 281 284 288 289 290 289 287 287 284 282 279 276 271 266 260 257 255 254 255 256 256 256 257 258 258
266 257 246 250 250 250 255 260 262 265 268 267 268 264 267 276 280 280 282 286 289 289 290 289 288 287 287 285 282 278 275 270 265 261 259 258 256 256 257 258 259 260 260
265 262 254 254 250 252 256 260 264 266 269 269 269 271 269 274 278 278 280 283 287 289 290 291 291 291 289 286 283 279 275 271 266 264 263 261 259 257 259 260 260 260 261
268 265 260 258 254 257 262 263 264 267 269 271 271 273 272 275 284 279 281 284 285 287 288 288 288 287 286 285 284 280 276 270 267 264 262 261 259 260 261 261 262 262 262
273 269 262 257 258 263 267 265 264 266 268 269 272 273 277 280 283 278 282 286 288 288 288 287 285 284 284 284 283 281 279 276 273 268 265 263 261 259 260 261 261 261 262
275 271 263 259 263 265 266 265 265 266 266 267 273 276 278 282 285 279 284 287 288 288 288 288 287 286 283 283 283 283 281 278 276 272 269 265 264 262 262 261 263 264 263
270 270 265 260 261 262 265 264 263 265 268 270 274 278 279 280 283 285 292 288 289 289 288 288 287 287 286 285 282 280 280 279 277 273 271 269 268 266 264 261 261 262 261
268 268 265 266 263 263 265 267 267 270 272 275 279 283 281 279 283 289 292 290 294 289 288 287 286 286 286 285 283 280 279 278 276 274 271 269 268 266 265 263 263 264 263
268 266 265 265 263 264 270 270 269 272 273 276 280 282 284 283 285 290 293 294 294 292 292 289 285 285 285 283 282 281 279 277 275 273 270 269 268 265 265 265 264 265 266
268 266 266 262 261 262 266 268 269 272 274 277 280 280 283 284 286 290 293 295 294 294 292 291 288 288 286 284 282 280 280 278 276 273 270 269 268 266 266 265 264 265 266
Height
5856 5856 5856 5856 5856 5856 5856 5855 5855 5855 5855 5855 5856 5856 5856 5856 5857 5858 5859 5859 5860 5861 5862 5862 5863 5864 5864 5865 5865 5866 5866 5866 5867 5867 5868 5869 5870 5871 5872 5872 5873 5874 5874
5855 5855 5855 5855 5855 5855 5855 5855 5855 5855 5855 5855 5855 5855 5855 5854 5855 5857 5858 5858 5859 5860 5861 5862 5862 5863 5864 5864 5864 5865 5865 5865 5866 5867 5868 5868 5869 5870 5871 5872 5872 5873 5873
5854 5854 5854 5854 5854 5855 5854 5855 5855 5855 5855 5854 5854 5854 5854 5853 5854 5856 5857 5858 5859 5859 5860 5861 5861 5862 5862 5863 5863 5864 5864 5865 5865 5866 5867 5867 5868 5869 5870 5871 5871 5872 5873
5853 5853 5853 5853 5853 5853 5853 5854 5854 5854 5854 5854 5854 5854 5854 5853 5854 5855 5856 5857 5858 5858 5859 5860 5860 5861 5861 5861 5862 5862 5863 5863 5864 5865 5866 5866 5867 5868 5868 5869 5870 5871 5871
5851 5852 5852 5852 5852 5852 5852 5852 5853 5853 5853 5853 5853 5853 5853 5853 5854 5854 5855 5856 5856 5857 5857 5858 5859 5859 5860 5860 5861 5861 5861 5862 5862 5863 5864 5865 5866 5866 5867 5868 5868 5869 5870
5850 5850 5850 5851 5851 5851 5851 5851 5851 5852 5852 5852 5852 5852 5852 5853 5853 5853 5854 5854 5855 5855 5856 5856 5857 5857 5858 5858 5859 5859 5860 5860 5860 5861 5862 5863 5864 5864 5865 5866 5867 5867 5868
5849 5849 5849 5849 5849 5850 5850 5850 5850 5850 5850 5851 5851 5851 5851 5851 5851 5852 5853 5853 5853 5854 5854 5855 5855 5856 5856 5856 5857 5857 5858 5858 5859 5860 5860 5861 5862 5862 5863 5864 5864 5865 5865
5847 5847 5848 5848 5848 5848 5849 5849 5849 5849 5849 5850 5850 5850 5850 5850 5850 5850 5851 5851 5852 5852 5852 5853 5853 5854 5854 5854 5855 5855 5856 5856 5856 5857 5858 5859 5860 5860 5861 5862 5862 5863 5863
5846 5846 5846 5847 5847 5847 5847 5848 5848 5848 5848 5848 5848 5848 5848 5848 5848 5849 5849 5849 5849 5850 5850 5851 5851 5852 5852 5852 5853 5853 5853 5854 5854 5855 5856 5857 5857 5858 5858 5859 5859 5860 5861
5845 5845 5845 5846 5846 5846 5846 5846 5846 5847 5847 5847 5847 5846 5846 5846 5846 5846 5846 5847 5847 5848 5848 5848 5849 5849 5849 5850 5850 5850 5851 5851 5852 5852 5853 5854 5855 5855 5856 5856 5857 5857 5857
5843 5844 5844 5844 5845 5845 5845 5845 5846 5846 5846 5846 5846 5845 5844 5844 5843 5843 5843 5844 5845 5846 5846 5846 5846 5846 5847 5847 5847 5848 5848 5848 5849 5850 5851 5851 5852 5852 5852 5853 5854 5854 5854
5842 5843 5843 5843 5844 5844 5844 5844 5844 5844 5844 5844 5844 5843 5843 5842 5841 5840 5841 5842 5843 5843 5844 5844 5844 5844 5844 5845 5845 5845 5845 5846 5847 5847 5848 5848 5849 5849 5849 5849 5850 5851 5852
5841 5842 5842 5842 5842 5843 5843 5843 5843 5843 5843 5843 5843 5842 5842 5841 5840 5839 5839 5840 5841 5841 5842 5842 5841 5841 5842 5842 5842 5842 5843 5844 5844 5845 5845 5845 5846 5846 5846 5847 5848 5849 5849
5840 5840 5840 5841 5841 5841 5842 5842 5842 5842 5842 5842 5841 5841 5840 5840 5839 5839 5839 5839 5839 5840 5840 5840 5840 5840 5840 5840 5840 5840 5841 5841 5841 5842 5842 5842 5843 5843 5843 5844 5845 5846 5846
5839 5839 5839 5839 5839 5840 5840 5840 5840 5840 5840 5840 5840 5839 5839 5839 5838 5838 5838 5838 5838 5838 5838 5838 5838 5838 5838 5838 5837 5837 5837 5838 5838 5838 5839 5839 5840 5840 5841 5841 5842 5843 5843
5837 5837 5837 5837 5838 5838 5838 5839 5839 5839 5839 5839 5838 5838 5838 5838 5837 5837 5837 5837 5837 5836 5836 5836 5836 5836 5835 5835 5835 5835 5835 5835 5835 5835 5835 5836 5837 5837 5838 5838 5839 5840 5840
5835 5835 5835 5835 5836 5836 5836 5837 5837 5837 5837 5837 5837 5837 5837 5836 5836 5836 5836 5835 5835 5835 5834 5834 5834 5833 5833 5832 5832 5832 5832 5832 5832 5832 5832 5833 5833 5834 5835 5835 5836 5836 5837
5833 5833 5834 5834 5834 5834 5835 5835 5835 5835 5835 5835 5835 5835 5835 5835 5834 5834 5834 5834 5833 5833 5833 5832 5832 5831 5831 5830 5829 5829 5829 5829 5829 5829 5829 5830 5830 5831 5831 5832 5832 5833 5833
5831 5831 5832 5832 5832 5832 5833 5833 5833 5833 5833 5833 5833 5833 5833 5833 5833 5832 5832 5832 5831 5831 5831 5830 5830 5829 5828 5828 5827 5826 5826 5826 5826 5826 5826 5827 5827 5827 5828 5828 5829 5829 5830
5829 5829 5830 5830 5830 5830 5831 5831 5831 5831 5831 5831 5831 5831 5831 5831 5831 5830 5830 5830 5829 5829 5828 5828 5827 5827 5826 5825 5825 5824 5823 5823 5823 5823 5823 5823 5824 5824 5824 5825 5825 5826 5826
5827 5827 5827 5828 5828 5828 5828 5829 5829 5829 5829 5829 5829 5829 5829 5829 5829 5828 5828 5827 5827 5826 5826 5825 5825 5824 5823 5822 5822 5821 5821 5820 5820 5820 5820 5820 5820 5821 5821 5821 5821 5822 5822
5824 5824 5824 5825 5825 5826 5826 5826 5826 5827 5827 5827 5827 5827 5827 5826 5826 5826 5825 5825 5824 5824 5823 5822 5821 5821 5820 5819 5819 5818 5818 5818 5817 5817 5817 5817 5817 5817 5818 5818 5818 5818 5818
5822 5822 5822 5823 5823 5823 5823 5824 5824 5824 5824 5824 5824 5824 5824 5824 5823 5823 5822 5822 5821 5820 5819 5819 5818 5817 5816 5816 5815 5815 5815 5814 5814 5814 5813 5813 5813 5814 5814 5814 5814 5814 5815
5819 5819 5820 5820 5820 5820 5821 5821 5821 5821 5821 5821 5821 5821 5821 5821 5820 5820 5819 5818 5818 5817 5816 5815 5814 5814 5813 5812 5812 5811 5811 5811 5810 5810 5810 5810 5810 5810 5810 5810 5811 5811 5811
5817 5817 5817 5817 5817 5817 5817 5818 5818 5818 5818 5818 5818 5818 5818 5817 5817 5816 5816 5815 5814 5813 5812 5811 5811 5810 5809 5809 5808 5808 5807 5807 5806 5806 5806 5806 5806 5806 5806 5806 5807 5807 5807
5814 5814 5814 5813 5814 5814 5814 5815 5815 5815 5815 5815 5815 5815 5814 5814 5813 5813 5812 5811 5810 5809 5808 5808 5807 5806 5806 5805 5804 5804 5803 5803 5803 5802 5802 5802 5802 5802 5802 5802 5802 5803 5803